Data No.,UTC Date,UTC Time,Latitude,Longitude,Course(deg),Temp(degC),Sal(psu)
81,2005/5/7,19:54:00,00-30.8200N,118-00.0000E,82,29.842,33.5928
82,2005/5/7,19:55:00,00-30.8500N,118-00.2400E,82,29.878,33.5949
83,2005/5/7,19:56:00,00-30.8800N,118-00.4900E,83,29.87,33.5291
84,2005/5/7,19:57:00,00-30.9100N,118-00.7200E,83,29.867,33.5643
85,2005/5/7,19:58:00,00-30.9400N,118-00.9600E,83,29.867,33.6015
86,2005/5/7,19:59:00,00-30.9700N,118-01.1900E,83,29.873,33.5966
87,2005/5/7,20:00:00,00-31.0000N,118-01.4200E,82,29.847,33.6084
88,2005/5/7,20:01:00,00-31.0200N,118-01.6600E,83,29.829,33.607
89,2005/5/7,20:02:00,00-31.0500N,118-01.8900E,83,29.794,33.6007
90,2005/5/7,20:03:00,00-31.0800N,118-02.1200E,82,29.787,33.5739
91,2005/5/7,20:04:00,00-31.1100N,118-02.3500E,83,29.797,33.5029
92,2005/5/7,20:05:00,00-31.1300N,118-02.5900E,83,29.767,33.3924
93,2005/5/7,20:06:00,00-31.1600N,118-02.8200E,83,29.766,33.4199
94,2005/5/7,20:07:00,00-31.1900N,118-03.0500E,83,29.781,33.4239
95,2005/5/7,20:08:00,00-31.2100N,118-03.2800E,83,29.835,33.4245
96,2005/5/7,20:09:00,00-31.2400N,118-03.5200E,83,29.845,33.3564
97,2005/5/7,20:10:00,00-31.2700N,118-03.7500E,83,29.881,33.2463
98,2005/5/7,20:11:00,00-31.3000N,118-03.9900E,82,29.903,33.1664
99,2005/5/7,20:12:00,00-31.3200N,118-04.2100E,83,29.897,33.126
100,2005/5/7,20:13:00,00-31.3500N,118-04.4500E,83,29.807,32.9903
101,2005/5/7,20:14:00,00-31.3800N,118-04.6800E,83,29.79,32.9337
102,2005/5/7,20:15:00,00-31.4000N,118-04.9100E,83,29.784,33.1775
103,2005/5/7,20:16:00,00-31.4300N,118-05.1500E,83,29.784,33.3535
104,2005/5/7,20:17:00,00-31.4600N,118-05.3800E,83,29.775,33.3843
105,2005/5/7,20:18:00,00-31.4800N,118-05.6100E,83,29.771,33.388
106,2005/5/7,20:19:00,00-31.5100N,118-05.8500E,83,29.777,33.3891
107,2005/5/7,20:20:00,00-31.5400N,118-06.0800E,83,29.785,33.4115
108,2005/5/7,20:21:00,00-31.5600N,118-06.3100E,83,29.777,33.4402
109,2005/5/7,20:22:00,00-31.5900N,118-06.5500E,83,29.833,33.3859
110,2005/5/7,20:23:00,00-31.6100N,118-06.7800E,83,29.817,33.3457
111,2005/5/7,20:24:00,00-31.6400N,118-07.0100E,82,29.805,33.2831
112,2005/5/7,20:25:00,00-31.6700N,118-07.2700E,83,29.815,33.1903
113,2005/5/7,20:26:00,00-31.7000N,118-07.5000E,83,29.794,33.2163
114,2005/5/7,20:27:00,00-31.7200N,118-07.7400E,84,29.785,33.2056
115,2005/5/7,20:28:00,00-31.7500N,118-07.9700E,84,29.759,33.1992
116,2005/5/7,20:29:00,00-31.7700N,118-08.2000E,84,29.756,33.1858
117,2005/5/7,20:30:00,00-31.7900N,118-08.4400E,83,29.74,33.1541
118,2005/5/7,20:31:00,00-31.8200N,118-08.6800E,83,29.731,33.1219
119,2005/5/7,20:32:00,00-31.8400N,118-08.9100E,83,29.729,33.0924
120,2005/5/7,20:33:00,00-31.8700N,118-09.1400E,84,29.704,33.0569
121,2005/5/7,20:34:00,00-31.8900N,118-09.3800E,84,29.642,33.0272
122,2005/5/7,20:35:00,00-31.9200N,118-09.6200E,84,29.615,33.0191
123,2005/5/7,20:36:00,00-31.9400N,118-09.8600E,84,29.613,33.0213
124,2005/5/7,20:37:00,00-31.9700N,118-10.1000E,84,29.574,33.0306
125,2005/5/7,20:38:00,00-31.9900N,118-10.3300E,83,29.59,33.0958
126,2005/5/7,20:39:00,00-32.0200N,118-10.5700E,82,29.555,33.1643
127,2005/5/7,20:40:00,00-32.0500N,118-10.8000E,83,29.574,33.202
128,2005/5/7,20:41:00,00-32.0800N,118-11.0400E,83,29.589,33.2257
129,2005/5/7,20:42:00,00-32.1000N,118-11.2800E,83,29.581,33.2331
130,2005/5/7,20:43:00,00-32.1200N,118-11.5200E,87,29.586,33.2435
131,2005/5/7,20:44:00,00-32.1100N,118-11.7500E,95,29.624,33.2554
132,2005/5/7,20:45:00,00-32.0700N,118-11.9800E,97,29.64,33.2695
133,2005/5/7,20:46:00,00-32.0400N,118-12.2200E,98,29.645,33.2848
134,2005/5/7,20:47:00,00-32.0000N,118-12.4500E,98,29.657,33.3056
135,2005/5/7,20:48:00,00-31.9600N,118-12.6900E,99,29.648,33.3172
136,2005/5/7,20:49:00,00-31.9300N,118-12.9200E,99,29.644,33.3232
137,2005/5/7,20:50:00,00-31.8900N,118-13.1600E,99,29.641,33.3394
138,2005/5/7,20:51:00,00-31.8500N,118-13.3900E,98,29.638,33.3533
139,2005/5/7,20:52:00,00-31.8200N,118-13.6300E,98,29.636,33.3633
140,2005/5/7,20:53:00,00-31.7800N,118-13.8700E,99,29.634,33.3666
141,2005/5/7,20:54:00,00-31.7400N,118-14.1000E,98,29.635,33.3642
142,2005/5/7,20:55:00,00-31.7000N,118-14.3400E,98,29.633,33.3634
143,2005/5/7,20:56:00,00-31.6700N,118-14.6000E,98,29.641,33.3618
144,2005/5/7,20:57:00,00-31.6300N,118-14.8300E,98,29.636,33.3609
145,2005/5/7,20:58:00,00-31.5900N,118-15.0700E,99,29.634,33.3686
146,2005/5/7,20:59:00,00-31.5500N,118-15.3000E,98,29.643,33.3723
147,2005/5/7,21:00:00,00-31.5200N,118-15.5400E,98,29.651,33.3681
148,2005/5/7,21:01:00,00-31.4800N,118-15.7800E,97,29.665,33.3628
149,2005/5/7,21:02:00,00-31.4500N,118-16.0200E,98,29.682,33.3633
150,2005/5/7,21:03:00,00-31.4200N,118-16.2500E,96,29.687,33.3673
151,2005/5/7,21:04:00,00-31.4000N,118-16.4900E,92,29.676,33.3631
152,2005/5/7,21:05:00,00-31.4100N,118-16.7300E,84,29.691,33.3589
153,2005/5/7,21:06:00,00-31.4600N,118-16.9500E,73,29.686,33.3554
154,2005/5/7,21:07:00,00-31.5400N,118-17.1700E,69,29.631,33.3566
155,2005/5/7,21:08:00,00-31.6200N,118-17.3900E,71,29.601,33.3661
156,2005/5/7,21:09:00,00-31.6800N,118-17.6100E,75,29.584,33.371
157,2005/5/7,21:10:00,00-31.7400N,118-17.8300E,74,29.582,33.3755
158,2005/5/7,21:11:00,00-31.8100N,118-18.0600E,73,29.582,33.3886
159,2005/5/7,21:12:00,00-31.8800N,118-18.2800E,72,29.573,33.3948
160,2005/5/7,21:13:00,00-31.9500N,118-18.5100E,73,29.569,33.3877
161,2005/5/7,21:14:00,00-32.0100N,118-18.7400E,73,29.558,33.3864
162,2005/5/7,21:15:00,00-32.0800N,118-18.9600E,73,29.552,33.3959
163,2005/5/7,21:16:00,00-32.1500N,118-19.2000E,73,29.549,33.3961
164,2005/5/7,21:17:00,00-32.2100N,118-19.4200E,73,29.532,33.3809
165,2005/5/7,21:18:00,00-32.2800N,118-19.6500E,74,29.519,33.3675
166,2005/5/7,21:19:00,00-32.3400N,118-19.8800E,73,29.544,33.3658
167,2005/5/7,21:20:00,00-32.4100N,118-20.1000E,73,29.533,33.3659
168,2005/5/7,21:21:00,00-32.4700N,118-20.3300E,74,29.532,33.3586
169,2005/5/7,21:22:00,00-32.5400N,118-20.5600E,73,29.547,33.3519
170,2005/5/7,21:23:00,00-32.6100N,118-20.7900E,74,29.543,33.3468
171,2005/5/7,21:24:00,00-32.6700N,118-21.0200E,75,29.523,33.3335
172,2005/5/7,21:25:00,00-32.7400N,118-21.2700E,74,29.501,33.336
173,2005/5/7,21:26:00,00-32.8000N,118-21.5000E,74,29.497,33.3438
174,2005/5/7,21:27:00,00-32.8600N,118-21.7300E,74,29.484,33.3409
175,2005/5/7,21:28:00,00-32.9300N,118-21.9600E,74,29.475,33.3479
176,2005/5/7,21:29:00,00-32.9900N,118-22.1800E,75,29.468,33.3596
177,2005/5/7,21:30:00,00-33.0500N,118-22.4100E,75,29.461,33.3749
178,2005/5/7,21:31:00,00-33.1100N,118-22.6400E,75,29.45,33.4023
179,2005/5/7,21:32:00,00-33.1700N,118-22.8800E,75,29.44,33.4252
180,2005/5/7,21:33:00,00-33.2300N,118-23.1000E,75,29.431,33.4404
181,2005/5/7,21:34:00,00-33.2900N,118-23.3300E,75,29.427,33.4476
182,2005/5/7,21:35:00,00-33.3500N,118-23.5600E,75,29.396,33.4345
183,2005/5/7,21:36:00,00-33.4100N,118-23.7900E,75,29.423,33.4261
184,2005/5/7,21:37:00,00-33.4700N,118-24.0200E,75,29.447,33.4195
185,2005/5/7,21:38:00,00-33.5300N,118-24.2500E,75,29.461,33.4188
186,2005/5/7,21:39:00,00-33.5900N,118-24.4800E,75,29.483,33.4244
187,2005/5/7,21:40:00,00-33.6500N,118-24.7200E,75,29.464,33.4386
188,2005/5/7,21:41:00,00-33.7000N,118-24.9400E,76,29.455,33.4465
189,2005/5/7,21:42:00,00-33.7600N,118-25.1700E,76,29.436,33.446
190,2005/5/7,21:43:00,00-33.8100N,118-25.4100E,76,29.437,33.4508
191,2005/5/7,21:44:00,00-33.8700N,118-25.6400E,75,29.427,33.4555
192,2005/5/7,21:45:00,00-33.9300N,118-25.8700E,75,29.415,33.4559
193,2005/5/7,21:46:00,00-34.0000N,118-26.0900E,74,29.413,33.4508
194,2005/5/7,21:47:00,00-34.0600N,118-26.3300E,74,29.414,33.4478
195,2005/5/7,21:48:00,00-34.1200N,118-26.5600E,75,29.4,33.449
196,2005/5/7,21:49:00,00-34.1700N,118-26.7900E,76,29.389,33.455
197,2005/5/7,21:50:00,00-34.2300N,118-27.0200E,76,29.388,33.466
198,2005/5/7,21:51:00,00-34.2900N,118-27.2600E,75,29.396,33.4727
199,2005/5/7,21:52:00,00-34.3500N,118-27.4900E,75,29.39,33.4762
200,2005/5/7,21:53:00,00-34.4100N,118-27.7200E,75,29.406,33.4766
201,2005/5/7,21:54:00,00-34.4700N,118-27.9500E,74,29.459,33.4846
202,2005/5/7,21:55:00,00-34.5400N,118-28.1800E,75,29.489,33.4884
203,2005/5/7,21:56:00,00-34.6000N,118-28.4300E,76,29.522,33.4993
204,2005/5/7,21:57:00,00-34.6600N,118-28.6700E,76,29.521,33.506
205,2005/5/7,21:58:00,00-34.7200N,118-28.9000E,75,29.508,33.5101
206,2005/5/7,21:59:00,00-34.7800N,118-29.1400E,75,29.509,33.5207
207,2005/5/7,22:00:00,00-34.8300N,118-29.3700E,76,29.499,33.5318
208,2005/5/7,22:01:00,00-34.8900N,118-29.6100E,75,29.485,33.5331
209,2005/5/7,22:02:00,00-34.9500N,118-29.8400E,76,29.48,33.5302
210,2005/5/7,22:03:00,00-35.0100N,118-30.0800E,76,29.485,33.529
211,2005/5/7,22:04:00,00-35.0600N,118-30.3100E,76,29.51,33.5284
212,2005/5/7,22:05:00,00-35.1200N,118-30.5400E,76,29.547,33.5279
213,2005/5/7,22:06:00,00-35.1700N,118-30.7800E,77,29.536,33.5286
214,2005/5/7,22:07:00,00-35.2200N,118-31.0100E,77,29.519,33.5379
215,2005/5/7,22:08:00,00-35.2800N,118-31.2500E,76,29.523,33.555
216,2005/5/7,22:09:00,00-35.3400N,118-31.4800E,74,29.508,33.5669
217,2005/5/7,22:10:00,00-35.4100N,118-31.7100E,74,29.494,33.575
218,2005/5/7,22:11:00,00-35.4700N,118-31.9500E,74,29.48,33.5763
219,2005/5/7,22:12:00,00-35.5300N,118-32.1700E,75,29.453,33.5784
220,2005/5/7,22:13:00,00-35.5900N,118-32.4100E,75,29.435,33.5763
221,2005/5/7,22:14:00,00-35.6500N,118-32.6400E,75,29.406,33.5756
222,2005/5/7,22:15:00,00-35.7100N,118-32.8800E,76,29.391,33.5818
223,2005/5/7,22:16:00,00-35.7700N,118-33.1100E,77,29.373,33.603
224,2005/5/7,22:17:00,00-35.8200N,118-33.3500E,77,29.365,33.6205
225,2005/5/7,22:18:00,00-35.8700N,118-33.5800E,77,29.353,33.6287
226,2005/5/7,22:19:00,00-35.9200N,118-33.8100E,77,29.341,33.6327
227,2005/5/7,22:20:00,00-35.9800N,118-34.0500E,76,29.347,33.635
228,2005/5/7,22:21:00,00-36.0300N,118-34.2800E,77,29.345,33.6338
229,2005/5/7,22:22:00,00-36.0800N,118-34.5200E,77,29.341,33.6346
230,2005/5/7,22:23:00,00-36.1400N,118-34.7600E,77,29.325,33.6359
231,2005/5/7,22:24:00,00-36.1900N,118-35.0000E,77,29.313,33.6366
232,2005/5/7,22:25:00,00-36.2500N,118-35.2500E,76,29.296,33.6349
233,2005/5/7,22:26:00,00-36.3100N,118-35.4900E,76,29.291,33.6373
234,2005/5/7,22:27:00,00-36.3700N,118-35.7200E,76,29.304,33.6384
235,2005/5/7,22:28:00,00-36.4300N,118-35.9600E,75,29.28,33.6382
236,2005/5/7,22:29:00,00-36.4900N,118-36.1900E,76,29.192,33.6454
237,2005/5/7,22:30:00,00-36.5500N,118-36.4300E,76,29.207,33.6596
238,2005/5/7,22:31:00,00-36.6000N,118-36.6700E,76,29.164,33.6725
239,2005/5/7,22:32:00,00-36.6600N,118-36.9100E,76,29.181,33.7113
240,2005/5/7,22:33:00,00-36.7100N,118-37.1400E,77,29.19,33.7386
241,2005/5/7,22:34:00,00-36.7700N,118-37.3800E,77,29.206,33.7561
242,2005/5/7,22:35:00,00-36.8200N,118-37.6200E,77,29.205,33.7679
243,2005/5/7,22:36:00,00-36.8800N,118-37.8600E,77,29.184,33.7569
244,2005/5/7,22:37:00,00-36.9300N,118-38.1000E,77,29.174,33.7279
245,2005/5/7,22:38:00,00-36.9800N,118-38.3300E,77,29.169,33.6985
246,2005/5/7,22:39:00,00-37.0400N,118-38.5700E,76,29.175,33.6814
247,2005/5/7,22:40:00,00-37.1000N,118-38.8100E,76,29.188,33.6795
248,2005/5/7,22:41:00,00-37.1500N,118-39.0400E,76,29.176,33.6779
249,2005/5/7,22:42:00,00-37.2100N,118-39.2800E,77,29.17,33.6711
250,2005/5/7,22:43:00,00-37.2700N,118-39.5200E,76,29.169,33.6797
251,2005/5/7,22:44:00,00-37.3200N,118-39.7500E,76,29.169,33.6815
252,2005/5/7,22:45:00,00-37.3800N,118-39.9900E,76,29.171,33.6846
253,2005/5/7,22:46:00,00-37.4400N,118-40.2300E,76,29.16,33.6826
254,2005/5/7,22:47:00,00-37.4900N,118-40.4700E,75,29.148,33.674
255,2005/5/7,22:48:00,00-37.5600N,118-40.7100E,75,29.137,33.6661
256,2005/5/7,22:49:00,00-37.6200N,118-40.9400E,75,29.126,33.6616
257,2005/5/7,22:50:00,00-37.6800N,118-41.1800E,75,29.134,33.6566
258,2005/5/7,22:51:00,00-37.7400N,118-41.4200E,76,29.156,33.6563
259,2005/5/7,22:52:00,00-37.7900N,118-41.6500E,76,29.144,33.6597
260,2005/5/7,22:53:00,00-37.8600N,118-41.9100E,76,29.122,33.6677
261,2005/5/7,22:54:00,00-37.9200N,118-42.1500E,75,29.145,33.6764
262,2005/5/7,22:55:00,00-37.9800N,118-42.3800E,75,29.156,33.688
263,2005/5/7,22:56:00,00-38.0400N,118-42.6200E,75,29.14,33.7178
264,2005/5/7,22:57:00,00-38.1000N,118-42.8500E,75,29.132,33.7149
265,2005/5/7,22:58:00,00-38.1600N,118-43.0900E,75,29.125,33.6828
266,2005/5/7,22:59:00,00-38.2200N,118-43.3300E,76,29.114,33.6782
267,2005/5/7,23:00:00,00-38.2700N,118-43.5600E,76,29.056,33.6831
268,2005/5/7,23:01:00,00-38.3300N,118-43.8000E,76,29.127,33.6859
269,2005/5/7,23:02:00,00-38.3900N,118-44.0400E,76,29.043,33.6985
270,2005/5/7,23:03:00,00-38.4500N,118-44.2700E,76,29.156,33.7186
271,2005/5/7,23:04:00,00-38.5000N,118-44.5100E,76,29,33.7218
272,2005/5/7,23:05:00,00-38.5600N,118-44.7400E,76,29.135,33.7176
273,2005/5/7,23:06:00,00-38.6200N,118-44.9700E,74,29.174,33.7017
274,2005/5/7,23:07:00,00-38.6900N,118-45.2000E,70,29.193,33.6958
275,2005/5/7,23:08:00,00-38.7900N,118-45.4200E,65,29.193,33.694
276,2005/5/7,23:09:00,00-38.9000N,118-45.6300E,60,29.169,33.6801
277,2005/5/7,23:10:00,00-39.0300N,118-45.8400E,58,29.148,33.6636
278,2005/5/7,23:11:00,00-39.1500N,118-46.0500E,60,28.821,33.6562
279,2005/5/7,23:12:00,00-39.2600N,118-46.2500E,60,28.412,33.6533
280,2005/5/7,23:13:00,00-39.3800N,118-46.4600E,61,28.358,33.6549
281,2005/5/7,23:14:00,00-39.4900N,118-46.6700E,61,28.189,33.6858
282,2005/5/7,23:15:00,00-39.6100N,118-46.8700E,60,28.271,33.7616
283,2005/5/7,23:16:00,00-39.7300N,118-47.0800E,60,28.548,33.8357
284,2005/5/7,23:17:00,00-39.8500N,118-47.2800E,59,28.794,33.8799
285,2005/5/7,23:18:00,00-39.9700N,118-47.4900E,59,28.859,33.9045
286,2005/5/7,23:19:00,00-40.0900N,118-47.6900E,59,29.095,33.8929
287,2005/5/7,23:20:00,00-40.2100N,118-47.9000E,59,29.042,33.8523
288,2005/5/7,23:21:00,00-40.3300N,118-48.1000E,60,29.113,33.8085
289,2005/5/7,23:22:00,00-40.4500N,118-48.3100E,60,29.05,33.7633
290,2005/5/7,23:23:00,00-40.5600N,118-48.5100E,60,29.11,33.7329
291,2005/5/7,23:24:00,00-40.6900N,118-48.7400E,60,29.089,33.7195
292,2005/5/7,23:25:00,00-40.8100N,118-48.9400E,60,29.118,33.7166
293,2005/5/7,23:26:00,00-40.9300N,118-49.1500E,60,29.163,33.7122
294,2005/5/7,23:27:00,00-41.0500N,118-49.3600E,60,29.113,33.7086
295,2005/5/7,23:28:00,00-41.1700N,118-49.5600E,59,29.043,33.7089
296,2005/5/7,23:29:00,00-41.2900N,118-49.7700E,59,29.003,33.6974
297,2005/5/7,23:30:00,00-41.4100N,118-49.9700E,59,28.903,33.6924
298,2005/5/7,23:31:00,00-41.5300N,118-50.1700E,59,28.398,33.6884
299,2005/5/7,23:32:00,00-41.6500N,118-50.3800E,59,28.404,33.6946
300,2005/5/7,23:33:00,00-41.7700N,118-50.5800E,59,28.351,33.7166
301,2005/5/7,23:34:00,00-41.8900N,118-50.7800E,59,28.396,33.8068
302,2005/5/7,23:35:00,00-42.0100N,118-50.9800E,59,28.44,33.8923
303,2005/5/7,23:36:00,00-42.1200N,118-51.1800E,60,28.472,33.9507
304,2005/5/7,23:37:00,00-42.2400N,118-51.3800E,60,28.498,33.9897
305,2005/5/7,23:38:00,00-42.3500N,118-51.5800E,60,28.554,34.0053
306,2005/5/7,23:39:00,00-42.4700N,118-51.7800E,59,28.576,34.0048
307,2005/5/7,23:40:00,00-42.5800N,118-51.9700E,59,28.584,33.9962
308,2005/5/7,23:41:00,00-42.6900N,118-52.1600E,60,28.635,33.9856
309,2005/5/7,23:42:00,00-42.8000N,118-52.3600E,59,28.705,33.9723
310,2005/5/7,23:43:00,00-42.9200N,118-52.5500E,59,28.709,33.9649
311,2005/5/7,23:44:00,00-43.0300N,118-52.7400E,61,28.52,33.9556
312,2005/5/7,23:45:00,00-43.1300N,118-52.9400E,63,27.905,33.943
313,2005/5/7,23:46:00,00-43.2300N,118-53.1400E,62,27.914,33.9229
314,2005/5/7,23:47:00,00-43.3400N,118-53.3200E,56,27.934,33.9516
315,2005/5/7,23:48:00,00-43.4600N,118-53.4900E,54,27.941,34.0483
316,2005/5/7,23:49:00,00-43.5900N,118-53.6700E,55,27.941,34.1304
317,2005/5/7,23:50:00,00-43.7100N,118-53.8500E,56,27.946,34.1636
318,2005/5/7,23:51:00,00-43.8200N,118-54.0200E,56,27.959,34.1732
319,2005/5/7,23:52:00,00-43.9400N,118-54.2000E,56,27.974,34.1823
320,2005/5/7,23:53:00,00-44.0600N,118-54.3900E,57,27.999,34.1988
321,2005/5/7,23:54:00,00-44.1800N,118-54.5700E,57,28.04,34.2086
322,2005/5/7,23:55:00,00-44.2900N,118-54.7500E,57,28.085,34.2088
323,2005/5/7,23:56:00,00-44.4100N,118-54.9300E,58,28.109,34.2027
324,2005/5/7,23:57:00,00-44.5200N,118-55.1000E,57,28.144,34.1896
325,2005/5/7,23:58:00,00-44.6400N,118-55.2800E,57,28.171,34.1713
326,2005/5/7,23:59:00,00-44.7500N,118-55.4600E,57,28.193,34.1529
327,2005/5/8,0:00:00,00-44.8700N,118-55.6400E,57,28.224,34.135
330,2005/5/8,0:01:00,00-44.9900N,118-55.8400E,57,28.27,34.1207
331,2005/5/8,0:02:00,00-45.1100N,118-56.0200E,58,28.278,34.1105
332,2005/5/8,0:03:00,00-45.2200N,118-56.2000E,59,28.302,34.1021
333,2005/5/8,0:04:00,00-45.3400N,118-56.4000E,58,28.14,34.0908
334,2005/5/8,0:05:00,00-45.4500N,118-56.5800E,58,27.911,34.0732
335,2005/5/8,0:06:00,00-45.5600N,118-56.7700E,59,27.893,34.0771
336,2005/5/8,0:07:00,00-45.6700N,118-56.9500E,59,27.885,34.1044
337,2005/5/8,0:08:00,00-45.7800N,118-57.1300E,59,27.899,34.1755
338,2005/5/8,0:09:00,00-45.8900N,118-57.3100E,59,27.902,34.2401
339,2005/5/8,0:10:00,00-45.9900N,118-57.4900E,59,27.889,34.2705
340,2005/5/8,0:11:00,00-46.1000N,118-57.6800E,59,27.9,34.2816
341,2005/5/8,0:12:00,00-46.2000N,118-57.8600E,59,27.905,34.2965
342,2005/5/8,0:13:00,00-46.3100N,118-58.0300E,59,27.938,34.2975
343,2005/5/8,0:14:00,00-46.4200N,118-58.2100E,60,27.938,34.2926
344,2005/5/8,0:15:00,00-46.5200N,118-58.3900E,60,27.932,34.2929
345,2005/5/8,0:16:00,00-46.6200N,118-58.5700E,60,27.948,34.2954
346,2005/5/8,0:17:00,00-46.7300N,118-58.7600E,60,27.945,34.2919
347,2005/5/8,0:18:00,00-46.8300N,118-58.9400E,59,27.96,34.2928
348,2005/5/8,0:19:00,00-46.9300N,118-59.1100E,60,27.978,34.2911
349,2005/5/8,0:20:00,00-47.0400N,118-59.2900E,59,27.98,34.2875
350,2005/5/8,0:21:00,00-47.1500N,118-59.4700E,58,27.994,34.2806
351,2005/5/8,0:22:00,00-47.2600N,118-59.6400E,57,27.987,34.274
352,2005/5/8,0:23:00,00-47.3800N,118-59.8200E,57,27.982,34.2665
353,2005/5/8,0:24:00,00-47.4900N,119-00.0000E,58,27.965,34.2646
354,2005/5/8,0:25:00,00-47.6000N,119-00.1700E,57,27.992,34.2685
355,2005/5/8,0:26:00,00-47.7100N,119-00.3500E,57,28.022,34.2718
356,2005/5/8,0:27:00,00-47.8300N,119-00.5300E,57,28.043,34.2744
357,2005/5/8,0:28:00,00-47.9400N,119-00.7000E,57,28.037,34.2724
358,2005/5/8,0:29:00,00-48.0500N,119-00.8800E,58,28.031,34.2718
359,2005/5/8,0:30:00,00-48.1700N,119-01.0600E,57,28.022,34.2741
360,2005/5/8,0:31:00,00-48.2800N,119-01.2400E,57,28.015,34.2752
361,2005/5/8,0:32:00,00-48.3900N,119-01.4200E,57,28.058,34.2723
362,2005/5/8,0:33:00,00-48.5100N,119-01.6000E,57,28.07,34.2676
363,2005/5/8,0:34:00,00-48.6300N,119-01.7900E,58,28.076,34.2665
364,2005/5/8,0:35:00,00-48.7400N,119-01.9700E,57,28.077,34.2654
365,2005/5/8,0:36:00,00-48.8600N,119-02.1500E,56,28.099,34.2667
366,2005/5/8,0:37:00,00-48.9800N,119-02.3300E,57,28.099,34.2669
367,2005/5/8,0:38:00,00-49.0900N,119-02.5100E,58,28.082,34.2661
368,2005/5/8,0:39:00,00-49.2000N,119-02.6900E,58,28.099,34.2675
369,2005/5/8,0:40:00,00-49.3100N,119-02.8700E,58,28.118,34.2684
370,2005/5/8,0:41:00,00-49.4300N,119-03.0500E,57,28.152,34.2658
371,2005/5/8,0:42:00,00-49.5400N,119-03.2300E,57,28.159,34.2647
372,2005/5/8,0:43:00,00-49.6500N,119-03.4100E,58,28.171,34.2615
373,2005/5/8,0:44:00,00-49.7700N,119-03.5900E,60,28.164,34.258
374,2005/5/8,0:45:00,00-49.8800N,119-03.7800E,55,28.156,34.2572
375,2005/5/8,0:46:00,00-50.0100N,119-03.9300E,45,28.164,34.2564
376,2005/5/8,0:47:00,00-50.1700N,119-04.0500E,34,28.162,34.2572
377,2005/5/8,0:48:00,00-50.3400N,119-04.1500E,31,28.18,34.2493
378,2005/5/8,0:49:00,00-50.5100N,119-04.2600E,34,28.183,34.2396
379,2005/5/8,0:50:00,00-50.6800N,119-04.3800E,35,28.175,34.2342
380,2005/5/8,0:51:00,00-50.8500N,119-04.4900E,34,28.203,34.2316
381,2005/5/8,0:52:00,00-51.0100N,119-04.6100E,34,28.198,34.2265
382,2005/5/8,0:53:00,00-51.1900N,119-04.7300E,34,28.188,34.2286
383,2005/5/8,0:54:00,00-51.3600N,119-04.8400E,33,28.206,34.2292
384,2005/5/8,0:55:00,00-51.5300N,119-04.9600E,33,28.215,34.2299
385,2005/5/8,0:56:00,00-51.7000N,119-05.0700E,33,28.231,34.2271
386,2005/5/8,0:57:00,00-51.8800N,119-05.1800E,33,28.245,34.2265
387,2005/5/8,0:58:00,00-52.0500N,119-05.3000E,33,28.249,34.2274
388,2005/5/8,0:59:00,00-52.2300N,119-05.4100E,33,28.245,34.2243
389,2005/5/8,1:00:00,00-52.4100N,119-05.5200E,33,28.26,34.2287
390,2005/5/8,1:01:00,00-52.5800N,119-05.6400E,33,28.268,34.228
391,2005/5/8,1:02:00,00-52.7600N,119-05.7500E,33,28.28,34.2243
392,2005/5/8,1:03:00,00-52.9400N,119-05.8700E,33,28.283,34.2156
393,2005/5/8,1:04:00,00-53.1300N,119-05.9900E,33,28.29,34.2036
394,2005/5/8,1:05:00,00-53.3000N,119-06.1100E,33,28.295,34.1889
395,2005/5/8,1:06:00,00-53.4800N,119-06.2300E,33,28.311,34.1807
396,2005/5/8,1:07:00,00-53.6500N,119-06.3400E,33,28.305,34.1701
397,2005/5/8,1:08:00,00-53.8300N,119-06.4600E,33,28.303,34.1664
398,2005/5/8,1:09:00,00-53.9900N,119-06.6000E,44,28.301,34.1645
399,2005/5/8,1:10:00,00-54.1500N,119-06.7400E,38,28.368,34.1715
400,2005/5/8,1:11:00,00-54.3200N,119-06.8600E,33,28.402,34.18
401,2005/5/8,1:12:00,00-54.5000N,119-06.9700E,30,28.376,34.1889
402,2005/5/8,1:13:00,00-54.6800N,119-07.0700E,28,28.376,34.1708
403,2005/5/8,1:14:00,00-54.8600N,119-07.1600E,27,28.37,34.1271
404,2005/5/8,1:15:00,00-55.0400N,119-07.2600E,29,28.361,34.1032
405,2005/5/8,1:16:00,00-55.2200N,119-07.3600E,28,28.37,34.1085
406,2005/5/8,1:17:00,00-55.4200N,119-07.4600E,25,28.382,34.1256
407,2005/5/8,1:18:00,00-55.6100N,119-07.5400E,24,28.392,34.1378
408,2005/5/8,1:19:00,00-55.8000N,119-07.6300E,25,28.393,34.1491
409,2005/5/8,1:20:00,00-55.9900N,119-07.7200E,26,28.4,34.1462
410,2005/5/8,1:21:00,00-56.1700N,119-07.8100E,25,28.419,34.1417
411,2005/5/8,1:22:00,00-56.3700N,119-07.9100E,25,28.426,34.1445
412,2005/5/8,1:23:00,00-56.5600N,119-08.0000E,25,28.428,34.1493
413,2005/5/8,1:24:00,00-56.7500N,119-08.0900E,26,28.456,34.142
414,2005/5/8,1:25:00,00-56.9400N,119-08.1900E,27,28.438,34.1357
415,2005/5/8,1:26:00,00-57.1300N,119-08.2800E,26,28.477,34.1359
416,2005/5/8,1:27:00,00-57.3200N,119-08.3700E,25,28.484,34.1233
417,2005/5/8,1:28:00,00-57.5100N,119-08.4600E,23,28.499,34.1235
418,2005/5/8,1:29:00,00-57.7100N,119-08.5400E,20,28.483,34.1183
419,2005/5/8,1:30:00,00-57.9100N,119-08.6100E,20,28.47,34.1063
420,2005/5/8,1:31:00,00-58.1100N,119-08.6900E,21,28.466,34.0962
421,2005/5/8,1:32:00,00-58.3000N,119-08.7700E,21,28.47,34.0938
422,2005/5/8,1:33:00,00-58.5200N,119-08.8600E,22,28.488,34.1078
423,2005/5/8,1:34:00,00-58.7200N,119-08.9300E,21,28.503,34.1273
424,2005/5/8,1:35:00,00-58.9100N,119-09.0100E,21,28.571,34.1403
425,2005/5/8,1:36:00,00-59.1100N,119-09.0800E,20,28.595,34.1431
426,2005/5/8,1:37:00,00-59.3100N,119-09.1600E,20,28.521,34.1369
427,2005/5/8,1:38:00,00-59.5200N,119-09.2400E,20,28.503,34.1238
428,2005/5/8,1:39:00,00-59.7200N,119-09.3100E,18,28.555,34.1049
429,2005/5/8,1:40:00,00-59.9200N,119-09.3600E,14,28.59,34.1122
430,2005/5/8,1:41:00,01-00.1300N,119-09.4100E,13,28.528,34.125
431,2005/5/8,1:42:00,01-00.3400N,119-09.4700E,14,28.501,34.1231
432,2005/5/8,1:43:00,01-00.5400N,119-09.5200E,14,28.527,34.1009
433,2005/5/8,1:44:00,01-00.7500N,119-09.5700E,13,28.57,34.1031
434,2005/5/8,1:45:00,01-00.9600N,119-09.6300E,13,28.578,34.1196
435,2005/5/8,1:46:00,01-01.1700N,119-09.6800E,14,28.645,34.1207
436,2005/5/8,1:47:00,01-01.3800N,119-09.7300E,13,28.661,34.1085
437,2005/5/8,1:48:00,01-01.5900N,119-09.7800E,14,28.643,34.0867
438,2005/5/8,1:49:00,01-01.8000N,119-09.8400E,14,28.684,34.0534
439,2005/5/8,1:50:00,01-02.0100N,119-09.8900E,13,28.779,34.001
440,2005/5/8,1:51:00,01-02.2200N,119-09.9400E,12,28.739,33.9794
441,2005/5/8,1:52:00,01-02.4400N,119-09.9900E,13,28.641,33.97
442,2005/5/8,1:53:00,01-02.6500N,119-10.0400E,15,28.642,33.9332
443,2005/5/8,1:54:00,01-02.8600N,119-10.1000E,13,28.756,33.9059
444,2005/5/8,1:55:00,01-03.0700N,119-10.1400E,10,28.869,33.9417
445,2005/5/8,1:56:00,01-03.2800N,119-10.1700E,8,28.786,33.9869
446,2005/5/8,1:57:00,01-03.5000N,119-10.2000E,7,28.64,33.9991
447,2005/5/8,1:58:00,01-03.7200N,119-10.2400E,8,28.604,33.9508